When you browse on this site, cookies collect data to enhance your experience and personalize the content and advertising you see.
Visit our Privacy Policy to learn more. By continuing to use the site, you agree to this use of cookies and data.
  • în România
  • Lista ţărilor
  • Pe 7 zile
  • Temperatura apei
  • Hartă satelitară
  • Meteo pe hartă
  • Widget-uri
  • user-avatar
    Intrare

    Meteo pe oră la Oruro

    Astăzi, 17 Iunie, Luni

    Timp Temperatura Precipitaţii Vânt Presiune Umiditate
    00:00 +3°C° 0.5 mm 4 m/s 476 mmHg 83%
    01:00 +3°C° 0.5 mm 3 m/s 476 mmHg 85%
    02:00 +3°C° 0.5 mm 2 m/s 476 mmHg 87%
    03:00 +3°C° 0.6 mm 2 m/s 476 mmHg 89%
    04:00 +2°C° 0.6 mm 3 m/s 475 mmHg 90%
    05:00 +1°C° 0.6 mm 3 m/s 475 mmHg 92%
    06:00 +2°C° 0.1 mm 3 m/s 476 mmHg 87%
    07:00 +1°C° 0.1 mm 4 m/s 476 mmHg 83%
    08:00 +1°C° 0.1 mm 4 m/s 477 mmHg 79%
    09:00 +3°C° 0 mm 5 m/s 478 mmHg 66%
    10:00 +7°C° 0 mm 5 m/s 479 mmHg 53%
    11:00 +9°C° 0 mm 6 m/s 481 mmHg 41%
    12:00 +9°C° 0 mm 6 m/s 481 mmHg 39%
    13:00 +10°C° 0 mm 6 m/s 480 mmHg 38%
    14:00 +11°C° 0 mm 7 m/s 480 mmHg 36%
    15:00 +11°C° 0 mm 6 m/s 480 mmHg 37%
    16:00 +11°C° 0 mm 6 m/s 479 mmHg 37%
    17:00 +11°C° 0 mm 6 m/s 479 mmHg 37%
    18:00 +10°C° 0 mm 4 m/s 478 mmHg 44%
    19:00 +9°C° 0 mm 3 m/s 478 mmHg 50%
    20:00 +7°C° 0 mm 2 m/s 477 mmHg 56%
    21:00 +8°C° 0 mm 1 m/s 477 mmHg 54%
    22:00 +7°C° 0 mm 1 m/s 477 mmHg 53%
    23:00 +6°C° 0 mm 1 m/s 477 mmHg 51%

    Mâine, 18 Iunie, Marţi

    Timp Temperatura Precipitaţii Vânt Presiune Umiditate
    00:00 +6°C° 0 mm 1 m/s 476 mmHg 53%
    01:00 +5°C° 0 mm 1 m/s 475 mmHg 54%
    02:00 +4°C° 0 mm 1 m/s 475 mmHg 55%
    03:00 +4°C° 0 mm 1 m/s 474 mmHg 57%
    04:00 +2°C° 0 mm 0 m/s 474 mmHg 59%
    05:00 +1°C° 0 mm 0 m/s 473 mmHg 61%
    06:00 +2°C° 0 mm 0 m/s 474 mmHg 60%
    07:00 +3°C° 0 mm 0 m/s 475 mmHg 58%
    08:00 +4°C° 0 mm 0 m/s 476 mmHg 57%
    09:00 +7°C° 0 mm 1 m/s 477 mmHg 48%
    10:00 +8°C° 0 mm 2 m/s 479 mmHg 40%
    11:00 +9°C° 0 mm 2 m/s 480 mmHg 32%
    12:00 +11°C° 0 mm 3 m/s 480 mmHg 28%
    13:00 +12°C° 0 mm 4 m/s 480 mmHg 23%
    14:00 +14°C° 0 mm 5 m/s 480 mmHg 19%
    15:00 +13°C° 0 mm 5 m/s 480 mmHg 19%
    16:00 +13°C° 0 mm 4 m/s 480 mmHg 19%
    17:00 +13°C° 0 mm 4 m/s 480 mmHg 19%
    18:00 +11°C° 0 mm 4 m/s 479 mmHg 24%
    19:00 +9°C° 0 mm 3 m/s 478 mmHg 29%
    20:00 +7°C° 0 mm 3 m/s 477 mmHg 35%
    21:00 +7°C° 0 mm 2 m/s 476 mmHg 36%
    22:00 +7°C° 0 mm 1 m/s 476 mmHg 37%
    23:00 +6°C° 0 mm 1 m/s 476 mmHg 38%

    Poimâine, 19 Iunie, Miercuri

    Timp Temperatura Precipitaţii Vânt Presiune Umiditate
    00:00 +5°C° 0 mm 1 m/s 475 mmHg 40%
    01:00 +5°C° 0 mm 1 m/s 475 mmHg 41%
    02:00 +4°C° 0 mm 1 m/s 474 mmHg 42%
    03:00 +4°C° 0 mm 1 m/s 474 mmHg 44%
    04:00 +2°C° 0 mm 0 m/s 473 mmHg 45%
    05:00 +1°C° 0 mm 0 m/s 473 mmHg 47%
    06:00 +2°C° 0 mm 0 m/s 474 mmHg 47%
    07:00 +3°C° 0 mm 0 m/s 475 mmHg 46%
    08:00 +4°C° 0 mm 0 m/s 476 mmHg 46%
    09:00 +6°C° 0 mm 0 m/s 477 mmHg 39%
    10:00 +8°C° 0 mm 0 m/s 479 mmHg 31%
    11:00 +11°C° 0 mm 1 m/s 480 mmHg 24%
    12:00 +12°C° 0 mm 1 m/s 480 mmHg 22%
    13:00 +13°C° 0 mm 1 m/s 480 mmHg 19%
    14:00 +14°C° 0 mm 2 m/s 481 mmHg 17%
    15:00 +14°C° 0 mm 2 m/s 480 mmHg 17%
    16:00 +14°C° 0 mm 2 m/s 480 mmHg 16%
    17:00 +13°C° 0 mm 3 m/s 480 mmHg 16%
    18:00 +11°C° 0 mm 3 m/s 479 mmHg 21%
    19:00 +9°C° 0 mm 2 m/s 478 mmHg 27%
    20:00 +7°C° 0 mm 2 m/s 477 mmHg 32%
    21:00 +7°C° 0 mm 2 m/s 477 mmHg 38%
    22:00 +7°C° 0 mm 1 m/s 477 mmHg 44%
    23:00 +6°C° 0 mm 1 m/s 476 mmHg 49%

    20 Iunie, Joi

    Timp Temperatura Precipitaţii Vânt Presiune Umiditate
    00:00 +6°C° 0 mm 1 m/s 476 mmHg 54%
    01:00 +5°C° 0 mm 1 m/s 476 mmHg 58%
    02:00 +5°C° 0 mm 1 m/s 475 mmHg 63%
    03:00 +4°C° 0 mm 1 m/s 475 mmHg 66%
    04:00 +4°C° 0 mm 1 m/s 474 mmHg 69%
    05:00 +3°C° 0 mm 1 m/s 474 mmHg 72%
    06:00 +4°C° 0 mm 1 m/s 475 mmHg 68%
    07:00 +5°C° 0 mm 1 m/s 476 mmHg 64%
    08:00 +4°C° 0 mm 0 m/s 477 mmHg 60%
    09:00 +6°C° 0 mm 0 m/s 478 mmHg 50%
    10:00 +9°C° 0 mm 1 m/s 480 mmHg 40%
    11:00 +11°C° 0 mm 1 m/s 481 mmHg 30%
    12:00 +12°C° 0 mm 1 m/s 481 mmHg 25%
    13:00 +14°C° 0 mm 1 m/s 481 mmHg 21%
    14:00 +15°C° 0 mm 1 m/s 481 mmHg 16%
    15:00 +15°C° 0 mm 2 m/s 481 mmHg 17%
    16:00 +15°C° 0 mm 2 m/s 481 mmHg 17%
    17:00 +14°C° 0 mm 3 m/s 481 mmHg 18%
    18:00 +12°C° 0 mm 3 m/s 480 mmHg 25%
    19:00 +10°C° 0 mm 2 m/s 479 mmHg 33%
    20:00 +8°C° 0 mm 2 m/s 478 mmHg 40%
    21:00 +7°C° 0 mm 2 m/s 477 mmHg 44%
    22:00 +6°C° 0 mm 2 m/s 477 mmHg 47%
    23:00 +5°C° 0 mm 2 m/s 477 mmHg 51%

    21 Iunie, Vineri

    Timp Temperatura Precipitaţii Vânt Presiune Umiditate
    00:00 +6°C° 0 mm 1 m/s 476 mmHg 51%
    01:00 +5°C° 0 mm 1 m/s 476 mmHg 51%
    02:00 +4°C° 0 mm 1 m/s 475 mmHg 52%
    03:00 +4°C° 0 mm 1 m/s 474 mmHg 51%
    04:00 +2°C° 0 mm 0 m/s 474 mmHg 50%
    05:00 +1°C° 0 mm 0 m/s 473 mmHg 49%
    06:00 +2°C° 0 mm 0 m/s 474 mmHg 48%
    07:00 +3°C° 0 mm 0 m/s 476 mmHg 47%
    08:00 +4°C° 0 mm 0 m/s 477 mmHg 46%
    09:00 +6°C° 0 mm 0 m/s 478 mmHg 37%
    10:00 +8°C° 0 mm 0 m/s 479 mmHg 29%
    11:00 +10°C° 0 mm 0 m/s 481 mmHg 20%
    12:00 +12°C° 0 mm 1 m/s 481 mmHg 18%
    13:00 +13°C° 0 mm 1 m/s 481 mmHg 15%
    14:00 +14°C° 0 mm 1 m/s 481 mmHg 13%
    15:00 +14°C° 0 mm 2 m/s 481 mmHg 13%
    16:00 +14°C° 0 mm 2 m/s 481 mmHg 13%
    17:00 +13°C° 0 mm 3 m/s 480 mmHg 14%
    18:00 +12°C° 0 mm 2 m/s 480 mmHg 18%
    19:00 +9°C° 0 mm 2 m/s 479 mmHg 22%
    20:00 +7°C° 0 mm 2 m/s 478 mmHg 26%
    21:00 +7°C° 0 mm 2 m/s 477 mmHg 29%
    22:00 +7°C° 0 mm 1 m/s 477 mmHg 32%
    23:00 +5°C° 0 mm 0 m/s 476 mmHg 35%

    22 Iunie, Sâmbătă

    Timp Temperatura Precipitaţii Vânt Presiune Umiditate
    00:00 +4°C° 0 mm 0 m/s 476 mmHg 36%
    01:00 +4°C° 0 mm 0 m/s 475 mmHg 37%
    02:00 +3°C° 0 mm 0 m/s 475 mmHg 38%
    03:00 +3°C° 0 mm 0 m/s 474 mmHg 38%
    04:00 +2°C° 0 mm 0 m/s 474 mmHg 39%
    05:00 +1°C° 0 mm 0 m/s 473 mmHg 40%
    06:00 +2°C° 0 mm 0 m/s 474 mmHg 40%
    07:00 +3°C° 0 mm 0 m/s 475 mmHg 41%
    08:00 +4°C° 0 mm 0 m/s 476 mmHg 41%
    09:00 +6°C° 0 mm 0 m/s 478 mmHg 34%
    10:00 +8°C° 0 mm 0 m/s 479 mmHg 27%
    11:00 +11°C° 0 mm 1 m/s 481 mmHg 20%
    12:00 +12°C° 0 mm 1 m/s 481 mmHg 18%
    13:00 +13°C° 0 mm 1 m/s 481 mmHg 16%
    14:00 +14°C° 0 mm 1 m/s 481 mmHg 14%
    15:00 +14°C° 0 mm 2 m/s 481 mmHg 14%
    16:00 +14°C° 0 mm 2 m/s 480 mmHg 14%
    17:00 +14°C° 0 mm 2 m/s 480 mmHg 15%
    18:00 +12°C° 0 mm 2 m/s 479 mmHg 19%
    19:00 +9°C° 0 mm 2 m/s 478 mmHg 24%
    20:00 +7°C° 0 mm 2 m/s 477 mmHg 28%
    21:00 +8°C° 0 mm 1 m/s 477 mmHg 32%
    22:00 +7°C° 0 mm 1 m/s 476 mmHg 37%
    23:00 +6°C° 0 mm 1 m/s 476 mmHg 41%
    Arată mai mult